owner,sensor,date,latitude,longitude,vertical_datum,wind_speed,wind_to_direction,wind_speed_of_gust,qcFlag 
TCOON,ioos:station:TCOON:057:1,2011-10-01T00:00:00Z,28.4460,-96.3961,0.0,5.8,110.0,7.0,'11111222,11111222,11111222' 
TCOON,ioos:station:TCOON:057:1,2011-10-01T01:00:00Z,28.4460,-96.3961,0.0,6.1,98.0,6.7,'11111222,11111222,11111222' 
TCOON,ioos:station:TCOON:057:1,2011-10-01T02:00:00Z,28.4460,-96.3961,0.0,5.5,103.0,6.2,'11111222,11111222,11111222' 
TCOON,ioos:station:TCOON:057:1,2011-10-01T03:00:00Z,28.4460,-96.3961,0.0,5.0,99.0,5.5,'11111222,11111222,11111222' 
TCOON,ioos:station:TCOON:057:1,2011-10-01T04:00:00Z,28.4460,-96.3961,0.0,4.3,84.0,4.8,'11111222,11111222,11111222' 
TCOON,ioos:station:TCOON:057:1,2011-10-01T05:00:00Z,28.4460,-96.3961,0.0,4.7,73.0,5.0,'11111222,11111222,11111222' 
TCOON,ioos:station:TCOON:057:1,2011-10-01T06:00:00Z,28.4460,-96.3961,0.0,4.0,71.0,4.8,'11111222,11111222,11111222' 
TCOON,ioos:station:TCOON:057:1,2011-10-01T07:00:00Z,28.4460,-96.3961,0.0,3.3,64.0,3.9,'11111222,11111222,11111222' 
TCOON,ioos:station:TCOON:057:1,2011-10-01T08:00:00Z,28.4460,-96.3961,0.0,3.9,45.0,4.5,'11111222,11111222,11111222' 
TCOON,ioos:station:TCOON:057:1,2011-10-01T09:00:00Z,28.4460,-96.3961,0.0,6.1,38.0,7.0,'11111222,11111222,11111222' 
TCOON,ioos:station:TCOON:057:1,2011-10-01T10:00:00Z,28.4460,-96.3961,0.0,6.6,35.0,7.4,'11111222,11111222,11111222' 
TCOON,ioos:station:TCOON:057:1,2011-10-01T11:00:00Z,28.4460,-96.3961,0.0,6.6,47.0,7.6,'11111222,11111222,11111222' 
TCOON,ioos:station:TCOON:057:1,2011-10-01T12:00:00Z,28.4460,-96.3961,0.0,7.9,59.0,8.5,'11111222,11111222,11111222' 
TCOON,ioos:station:TCOON:057:1,2011-10-01T13:00:00Z,28.4460,-96.3961,0.0,7.9,61.0,8.8,'11111222,11111222,11111222' 
TCOON,ioos:station:TCOON:057:1,2011-10-01T14:00:00Z,28.4460,-96.3961,0.0,8.7,58.0,9.6,'11111222,11111222,11111222' 
TCOON,ioos:station:TCOON:057:1,2011-10-01T15:00:00Z,28.4460,-96.3961,0.0,8.7,60.0,10.1,'11111222,11111222,11111222' 
TCOON,ioos:station:TCOON:057:1,2011-10-01T16:00:00Z,28.4460,-96.3961,0.0,9.2,67.0,10.8,'11111222,11111222,11111222' 
TCOON,ioos:station:TCOON:057:1,2011-10-01T17:00:00Z,28.4460,-96.3961,0.0,9.3,64.0,10.4,'11111222,11111222,11111222' 
TCOON,ioos:station:TCOON:057:1,2011-10-01T18:00:00Z,28.4460,-96.3961,0.0,7.3,89.0,8.7,'11111222,11111222,11111222' 
TCOON,ioos:station:TCOON:057:1,2011-10-01T19:00:00Z,28.4460,-96.3961,0.0,6.1,83.0,8.7,'11111222,11111222,11111222' 
TCOON,ioos:station:TCOON:057:1,2011-10-01T20:00:00Z,28.4460,-96.3961,0.0,6.3,81.0,8.5,'11111222,11111222,11111222' 
TCOON,ioos:station:TCOON:057:1,2011-10-01T21:00:00Z,28.4460,-96.3961,0.0,8.3,93.0,9.7,'11111222,11111222,11111222' 
TCOON,ioos:station:TCOON:057:1,2011-10-01T22:00:00Z,28.4460,-96.3961,0.0,9.3,101.0,10.6,'11111222,11111222,11111222' 
TCOON,ioos:station:TCOON:057:1,2011-10-01T23:00:00Z,28.4460,-96.3961,0.0,9.0,97.0,10.1,'11111222,11111222,11111222' 
TCOON,ioos:station:TCOON:057:1,2011-10-02T00:00:00Z,28.4460,-96.3961,0.0,8.2,103.0,10.4,'11111222,11111222,11111222' 
TCOON,ioos:station:TCOON:057:1,2011-10-02T01:00:00Z,28.4460,-96.3961,0.0,8.0,98.0,9.5,'11111222,11111222,11111222' 
TCOON,ioos:station:TCOON:057:1,2011-10-02T02:00:00Z,28.4460,-96.3961,0.0,7.8,95.0,10.0,'11111222,11111222,11111222' 
TCOON,ioos:station:TCOON:057:1,2011-10-02T03:00:00Z,28.4460,-96.3961,0.0,6.6,102.0,7.9,'11111222,11111222,11111222' 
TCOON,ioos:station:TCOON:057:1,2011-10-02T04:00:00Z,28.4460,-96.3961,0.0,6.4,99.0,7.4,'11111222,11111222,11111222' 
TCOON,ioos:station:TCOON:057:1,2011-10-02T05:00:00Z,28.4460,-96.3961,0.0,5.7,102.0,6.5,'11111222,11111222,11111222' 
TCOON,ioos:station:TCOON:057:1,2011-10-02T06:00:00Z,28.4460,-96.3961,0.0,4.8,103.0,5.6,'11111222,11111222,11111222' 
TCOON,ioos:station:TCOON:057:1,2011-10-02T07:00:00Z,28.4460,-96.3961,0.0,4.8,103.0,5.5,'11111222,11111222,11111222' 
TCOON,ioos:station:TCOON:057:1,2011-10-02T08:00:00Z,28.4460,-96.3961,0.0,4.6,98.0,5.5,'11111222,11111222,11111222' 
TCOON,ioos:station:TCOON:057:1,2011-10-02T09:00:00Z,28.4460,-96.3961,0.0,5.6,95.0,6.7,'11111222,11111222,11111222' 
TCOON,ioos:station:TCOON:057:1,2011-10-02T10:00:00Z,28.4460,-96.3961,0.0,5.6,83.0,6.4,'11111222,11111222,11111222' 
TCOON,ioos:station:TCOON:057:1,2011-10-02T11:00:00Z,28.4460,-96.3961,0.0,4.8,71.0,6.2,'11111222,11111222,11111222' 
TCOON,ioos:station:TCOON:057:1,2011-10-02T12:00:00Z,28.4460,-96.3961,0.0,4.4,51.0,5.6,'11111222,11111222,11111222' 
TCOON,ioos:station:TCOON:057:1,2011-10-02T13:00:00Z,28.4460,-96.3961,0.0,6.0,45.0,6.7,'11111222,11111222,11111222' 
TCOON,ioos:station:TCOON:057:1,2011-10-02T14:00:00Z,28.4460,-96.3961,0.0,6.4,22.0,7.4,'11111222,11111222,11111222' 
TCOON,ioos:station:TCOON:057:1,2011-10-02T15:00:00Z,28.4460,-96.3961,0.0,7.9,35.0,9.0,'11111222,11111222,11111222' 
TCOON,ioos:station:TCOON:057:1,2011-10-02T16:00:00Z,28.4460,-96.3961,0.0,7.4,40.0,8.5,'11111222,11111222,11111222' 
TCOON,ioos:station:TCOON:057:1,2011-10-02T17:00:00Z,28.4460,-96.3961,0.0,5.5,39.0,6.4,'11111222,11111222,11111222' 
TCOON,ioos:station:TCOON:057:1,2011-10-02T18:00:00Z,28.4460,-96.3961,0.0,4.5,42.0,6.1,'11111222,11111222,11111222' 
TCOON,ioos:station:TCOON:057:1,2011-10-02T19:00:00Z,28.4460,-96.3961,0.0,4.9,103.0,6.6,'11111222,11111222,11111222' 
TCOON,ioos:station:TCOON:057:1,2011-10-02T20:00:00Z,28.4460,-96.3961,0.0,4.0,97.0,6.1,'11111222,11111222,11111222' 
TCOON,ioos:station:TCOON:057:1,2011-10-02T21:00:00Z,28.4460,-96.3961,0.0,4.9,112.0,5.9,'11111222,11111222,11111222' 
TCOON,ioos:station:TCOON:057:1,2011-10-02T22:00:00Z,28.4460,-96.3961,0.0,5.2,116.0,6.4,'11111222,11111222,11111222' 
TCOON,ioos:station:TCOON:057:1,2011-10-02T23:00:00Z,28.4460,-96.3961,0.0,6.1,119.0,7.1,'11111222,11111222,11111222' 
TCOON,ioos:station:TCOON:057:1,2011-10-03T00:00:00Z,28.4460,-96.3961,0.0,6.0,123.0,6.8,'11111222,11111222,11111222' 
TCOON,ioos:station:TCOON:057:1,2011-10-03T01:00:00Z,28.4460,-96.3961,0.0,5.3,125.0,6.1,'11111222,11111222,11111222' 
TCOON,ioos:station:TCOON:057:1,2011-10-03T02:00:00Z,28.4460,-96.3961,0.0,5.1,125.0,5.9,'11111222,11111222,11111222' 
TCOON,ioos:station:TCOON:057:1,2011-10-03T03:00:00Z,28.4460,-96.3961,0.0,5.1,132.0,6.9,'11111222,11111222,11111222' 
TCOON,ioos:station:TCOON:057:1,2011-10-03T04:00:00Z,28.4460,-96.3961,0.0,5.2,125.0,6.0,'11111222,11111222,11111222' 
TCOON,ioos:station:TCOON:057:1,2011-10-03T05:00:00Z,28.4460,-96.3961,0.0,4.2,118.0,4.7,'11111222,11111222,11111222' 
TCOON,ioos:station:TCOON:057:1,2011-10-03T06:00:00Z,28.4460,-96.3961,0.0,3.5,113.0,5.1,'11111222,11111222,11111222' 
TCOON,ioos:station:TCOON:057:1,2011-10-03T07:00:00Z,28.4460,-96.3961,0.0,4.7,122.0,5.4,'11111222,11111222,11111222' 
TCOON,ioos:station:TCOON:057:1,2011-10-03T08:00:00Z,28.4460,-96.3961,0.0,4.0,108.0,4.8,'11111222,11111222,11111222' 
TCOON,ioos:station:TCOON:057:1,2011-10-03T09:00:00Z,28.4460,-96.3961,0.0,3.7,108.0,5.0,'11111222,11111222,11111222' 
TCOON,ioos:station:TCOON:057:1,2011-10-03T10:00:00Z,28.4460,-96.3961,0.0,3.8,92.0,5.0,'11111222,11111222,11111222' 
TCOON,ioos:station:TCOON:057:1,2011-10-03T12:00:00Z,28.4460,-96.3961,0.0,5.3,81.0,6.5,'11111222,11111222,11111222' 
TCOON,ioos:station:TCOON:057:1,2011-10-03T13:00:00Z,28.4460,-96.3961,0.0,5.3,75.0,6.4,'11111222,11111222,11111222' 
TCOON,ioos:station:TCOON:057:1,2011-10-03T14:00:00Z,28.4460,-96.3961,0.0,4.4,62.0,6.7,'11111222,11111222,11111222' 
TCOON,ioos:station:TCOON:057:1,2011-10-03T15:00:00Z,28.4460,-96.3961,0.0,6.1,46.0,7.1,'11111222,11111222,11111222' 
TCOON,ioos:station:TCOON:057:1,2011-10-03T16:00:00Z,28.4460,-96.3961,0.0,4.9,45.0,7.2,'11111222,11111222,11111222' 
TCOON,ioos:station:TCOON:057:1,2011-10-03T17:00:00Z,28.4460,-96.3961,0.0,5.7,63.0,6.6,'11111222,11111222,11111222' 
TCOON,ioos:station:TCOON:057:1,2011-10-03T18:00:00Z,28.4460,-96.3961,0.0,4.4,99.0,6.7,'11111222,11111222,11111222' 
TCOON,ioos:station:TCOON:057:1,2011-10-03T19:00:00Z,28.4460,-96.3961,0.0,5.4,100.0,7.2,'11111222,11111222,11111222' 
TCOON,ioos:station:TCOON:057:1,2011-10-03T20:00:00Z,28.4460,-96.3961,0.0,6.2,123.0,7.8,'11111222,11111222,11111222' 
TCOON,ioos:station:TCOON:057:1,2011-10-03T21:00:00Z,28.4460,-96.3961,0.0,6.0,111.0,7.5,'11111222,11111222,11111222' 
TCOON,ioos:station:TCOON:057:1,2011-10-03T22:00:00Z,28.4460,-96.3961,0.0,5.6,101.0,8.2,'11111222,11111222,11111222' 
TCOON,ioos:station:TCOON:057:1,2011-10-03T23:00:00Z,28.4460,-96.3961,0.0,6.4,100.0,8.4,'11111222,11111222,11111222' 
TCOON,ioos:station:TCOON:057:1,2011-10-04T00:00:00Z,28.4460,-96.3961,0.0,6.3,104.0,8.2,'11111222,11111222,11111222' 
TCOON,ioos:station:TCOON:057:1,2011-10-04T01:00:00Z,28.4460,-96.3961,0.0,6.2,105.0,7.7,'11111222,11111222,11111222' 
TCOON,ioos:station:TCOON:057:1,2011-10-04T02:00:00Z,28.4460,-96.3961,0.0,6.7,113.0,8.3,'11111222,11111222,11111222' 
TCOON,ioos:station:TCOON:057:1,2011-10-04T03:00:00Z,28.4460,-96.3961,0.0,5.6,110.0,6.8,'11111222,11111222,11111222' 
TCOON,ioos:station:TCOON:057:1,2011-10-04T04:00:00Z,28.4460,-96.3961,0.0,4.0,109.0,5.8,'11111222,11111222,11111222' 
TCOON,ioos:station:TCOON:057:1,2011-10-04T05:00:00Z,28.4460,-96.3961,0.0,5.4,111.0,6.6,'11111222,11111222,11111222' 
TCOON,ioos:station:TCOON:057:1,2011-10-04T06:00:00Z,28.4460,-96.3961,0.0,4.4,126.0,6.2,'11111222,11111222,11111222' 
TCOON,ioos:station:TCOON:057:1,2011-10-04T07:00:00Z,28.4460,-96.3961,0.0,4.8,129.0,5.4,'11111222,11111222,11111222' 
TCOON,ioos:station:TCOON:057:1,2011-10-04T08:00:00Z,28.4460,-96.3961,0.0,2.3,107.0,3.7,'11111222,11111222,11111222' 
TCOON,ioos:station:TCOON:057:1,2011-10-04T09:00:00Z,28.4460,-96.3961,0.0,3.9,110.0,4.9,'11111222,11111222,11111222' 
TCOON,ioos:station:TCOON:057:1,2011-10-04T10:00:00Z,28.4460,-96.3961,0.0,3.2,118.0,4.2,'11111222,11111222,11111222' 
TCOON,ioos:station:TCOON:057:1,2011-10-04T11:00:00Z,28.4460,-96.3961,0.0,5.3,116.0,6.6,'11111222,11111222,11111222' 
TCOON,ioos:station:TCOON:057:1,2011-10-04T12:00:00Z,28.4460,-96.3961,0.0,4.6,74.0,5.8,'11111222,11111222,11111222' 
TCOON,ioos:station:TCOON:057:1,2011-10-04T13:00:00Z,28.4460,-96.3961,0.0,4.8,51.0,5.6,'11111222,11111222,11111222' 
TCOON,ioos:station:TCOON:057:1,2011-10-04T14:00:00Z,28.4460,-96.3961,0.0,5.4,82.0,6.4,'11111222,11111222,11111222' 
TCOON,ioos:station:TCOON:057:1,2011-10-04T15:00:00Z,28.4460,-96.3961,0.0,3.4,90.0,5.2,'11111222,11111222,11111222' 
TCOON,ioos:station:TCOON:057:1,2011-10-04T16:00:00Z,28.4460,-96.3961,0.0,5.9,103.0,6.7,'11111222,11111222,11111222' 
TCOON,ioos:station:TCOON:057:1,2011-10-04T17:00:00Z,28.4460,-96.3961,0.0,4.8,113.0,5.8,'11111222,11111222,11111222' 
TCOON,ioos:station:TCOON:057:1,2011-10-04T18:00:00Z,28.4460,-96.3961,0.0,4.3,104.0,6.2,'11111222,11111222,11111222' 
TCOON,ioos:station:TCOON:057:1,2011-10-04T19:00:00Z,28.4460,-96.3961,0.0,4.9,126.0,6.4,'11111222,11111222,11111222' 
TCOON,ioos:station:TCOON:057:1,2011-10-04T20:00:00Z,28.4460,-96.3961,0.0,4.5,115.0,6.2,'11111222,11111222,11111222' 
TCOON,ioos:station:TCOON:057:1,2011-10-04T21:00:00Z,28.4460,-96.3961,0.0,5.5,112.0,6.7,'11111222,11111222,11111222' 
TCOON,ioos:station:TCOON:057:1,2011-10-04T22:00:00Z,28.4460,-96.3961,0.0,5.8,95.0,7.1,'11111222,11111222,11111222' 
TCOON,ioos:station:TCOON:057:1,2011-10-04T23:00:00Z,28.4460,-96.3961,0.0,5.3,112.0,6.8,'11111222,11111222,11111222' 
TCOON,ioos:station:TCOON:057:1,2011-10-05T00:00:00Z,28.4460,-96.3961,0.0,6.1,103.0,7.1,'11111222,11111222,11111222' 
TCOON,ioos:station:TCOON:057:1,2011-10-05T01:00:00Z,28.4460,-96.3961,0.0,5.9,102.0,7.3,'11111222,11111222,11111222' 
TCOON,ioos:station:TCOON:057:1,2011-10-05T02:00:00Z,28.4460,-96.3961,0.0,6.5,104.0,8.2,'11111222,11111222,11111222' 
TCOON,ioos:station:TCOON:057:1,2011-10-05T03:00:00Z,28.4460,-96.3961,0.0,5.7,115.0,7.7,'11111222,11111222,11111222' 
TCOON,ioos:station:TCOON:057:1,2011-10-05T04:00:00Z,28.4460,-96.3961,0.0,7.6,112.0,8.9,'11111222,11111222,11111222' 
TCOON,ioos:station:TCOON:057:1,2011-10-05T05:00:00Z,28.4460,-96.3961,0.0,8.1,108.0,8.9,'11111222,11111222,11111222' 
TCOON,ioos:station:TCOON:057:1,2011-10-05T06:00:00Z,28.4460,-96.3961,0.0,7.8,110.0,8.9,'11111222,11111222,11111222' 
TCOON,ioos:station:TCOON:057:1,2011-10-05T07:00:00Z,28.4460,-96.3961,0.0,7.3,118.0,8.8,'11111222,11111222,11111222' 
TCOON,ioos:station:TCOON:057:1,2011-10-05T08:00:00Z,28.4460,-96.3961,0.0,7.5,116.0,8.5,'11111222,11111222,11111222' 
TCOON,ioos:station:TCOON:057:1,2011-10-05T09:00:00Z,28.4460,-96.3961,0.0,6.6,118.0,8.0,'11111222,11111222,11111222' 
TCOON,ioos:station:TCOON:057:1,2011-10-05T10:00:00Z,28.4460,-96.3961,0.0,7.0,118.0,8.1,'11111222,11111222,11111222' 
TCOON,ioos:station:TCOON:057:1,2011-10-05T11:00:00Z,28.4460,-96.3961,0.0,7.6,107.0,8.5,'11111222,11111222,11111222' 
TCOON,ioos:station:TCOON:057:1,2011-10-05T12:00:00Z,28.4460,-96.3961,0.0,6.7,106.0,8.2,'11111222,11111222,11111222' 
TCOON,ioos:station:TCOON:057:1,2011-10-05T13:00:00Z,28.4460,-96.3961,0.0,6.2,126.0,6.6,'11111222,11111222,11111222' 
TCOON,ioos:station:TCOON:057:1,2011-10-05T14:00:00Z,28.4460,-96.3961,0.0,5.9,120.0,7.9,'11111222,11111222,11111222' 
TCOON,ioos:station:TCOON:057:1,2011-10-05T15:00:00Z,28.4460,-96.3961,0.0,5.9,123.0,7.4,'11111222,11111222,11111222' 
TCOON,ioos:station:TCOON:057:1,2011-10-05T16:00:00Z,28.4460,-96.3961,0.0,5.9,117.0,7.0,'11111222,11111222,11111222' 
TCOON,ioos:station:TCOON:057:1,2011-10-05T17:00:00Z,28.4460,-96.3961,0.0,5.4,111.0,7.6,'11111222,11111222,11111222' 
TCOON,ioos:station:TCOON:057:1,2011-10-05T18:00:00Z,28.4460,-96.3961,0.0,5.5,113.0,7.2,'11111222,11111222,11111222' 
TCOON,ioos:station:TCOON:057:1,2011-10-05T19:00:00Z,28.4460,-96.3961,0.0,6.6,104.0,8.0,'11111222,11111222,11111222' 
TCOON,ioos:station:TCOON:057:1,2011-10-05T20:00:00Z,28.4460,-96.3961,0.0,8.3,112.0,9.7,'11111222,11111222,11111222' 
TCOON,ioos:station:TCOON:057:1,2011-10-05T21:00:00Z,28.4460,-96.3961,0.0,7.0,123.0,9.3,'11111222,11111222,11111222' 
TCOON,ioos:station:TCOON:057:1,2011-10-05T22:00:00Z,28.4460,-96.3961,0.0,8.5,106.0,9.3,'11111222,11111222,11111222' 
TCOON,ioos:station:TCOON:057:1,2011-10-05T23:00:00Z,28.4460,-96.3961,0.0,7.5,110.0,8.7,'11111222,11111222,11111222' 
TCOON,ioos:station:TCOON:057:1,2011-10-06T00:00:00Z,28.4460,-96.3961,0.0,7.4,114.0,8.9,'11111222,11111222,11111222' 
TCOON,ioos:station:TCOON:057:1,2011-10-06T01:00:00Z,28.4460,-96.3961,0.0,7.1,119.0,8.1,'11111222,11111222,11111222' 
TCOON,ioos:station:TCOON:057:1,2011-10-06T02:00:00Z,28.4460,-96.3961,0.0,7.8,118.0,9.6,'11111222,11111222,11111222' 
TCOON,ioos:station:TCOON:057:1,2011-10-06T03:00:00Z,28.4460,-96.3961,0.0,8.0,133.0,9.2,'11111222,11111222,11111222' 
TCOON,ioos:station:TCOON:057:1,2011-10-06T04:00:00Z,28.4460,-96.3961,0.0,7.0,127.0,7.8,'11111222,11111222,11111222' 
TCOON,ioos:station:TCOON:057:1,2011-10-06T05:00:00Z,28.4460,-96.3961,0.0,7.1,129.0,8.3,'11111222,11111222,11111222' 
TCOON,ioos:station:TCOON:057:1,2011-10-06T06:00:00Z,28.4460,-96.3961,0.0,7.6,150.0,9.0,'11111222,11111222,11111222' 
TCOON,ioos:station:TCOON:057:1,2011-10-06T07:00:00Z,28.4460,-96.3961,0.0,6.7,143.0,8.5,'11111222,11111222,11111222' 
TCOON,ioos:station:TCOON:057:1,2011-10-06T08:00:00Z,28.4460,-96.3961,0.0,6.2,130.0,8.6,'11111222,11111222,11111222' 
TCOON,ioos:station:TCOON:057:1,2011-10-06T09:00:00Z,28.4460,-96.3961,0.0,3.1,115.0,4.4,'11111222,11111222,11111222' 
TCOON,ioos:station:TCOON:057:1,2011-10-06T10:00:00Z,28.4460,-96.3961,0.0,5.6,122.0,6.4,'11111222,11111222,11111222' 
TCOON,ioos:station:TCOON:057:1,2011-10-06T11:00:00Z,28.4460,-96.3961,0.0,6.0,91.0,6.4,'11111222,11111222,11111222' 
TCOON,ioos:station:TCOON:057:1,2011-10-06T12:00:00Z,28.4460,-96.3961,0.0,6.4,119.0,7.5,'11111222,11111222,11111222' 
TCOON,ioos:station:TCOON:057:1,2011-10-06T13:00:00Z,28.4460,-96.3961,0.0,7.4,108.0,8.9,'11111222,11111222,11111222' 
TCOON,ioos:station:TCOON:057:1,2011-10-06T14:00:00Z,28.4460,-96.3961,0.0,7.0,122.0,7.9,'11111222,11111222,11111222' 
TCOON,ioos:station:TCOON:057:1,2011-10-06T15:00:00Z,28.4460,-96.3961,0.0,7.2,108.0,8.1,'11111222,11111222,11111222' 
TCOON,ioos:station:TCOON:057:1,2011-10-06T16:00:00Z,28.4460,-96.3961,0.0,2.9,128.0,3.9,'11111222,11111222,11111222' 
TCOON,ioos:station:TCOON:057:1,2011-10-06T17:00:00Z,28.4460,-96.3961,0.0,5.3,155.0,5.9,'11111222,11111222,11111222' 
TCOON,ioos:station:TCOON:057:1,2011-10-06T18:00:00Z,28.4460,-96.3961,0.0,5.2,150.0,6.5,'11111222,11111222,11111222' 
TCOON,ioos:station:TCOON:057:1,2011-10-06T19:00:00Z,28.4460,-96.3961,0.0,6.9,155.0,8.2,'11111222,11111222,11111222' 
TCOON,ioos:station:TCOON:057:1,2011-10-06T20:00:00Z,28.4460,-96.3961,0.0,5.8,143.0,7.2,'11111222,11111222,11111222' 
TCOON,ioos:station:TCOON:057:1,2011-10-06T21:00:00Z,28.4460,-96.3961,0.0,5.3,144.0,6.8,'11111222,11111222,11111222' 
TCOON,ioos:station:TCOON:057:1,2011-10-06T22:00:00Z,28.4460,-96.3961,0.0,6.3,134.0,6.9,'11111222,11111222,11111222' 
TCOON,ioos:station:TCOON:057:1,2011-10-06T23:00:00Z,28.4460,-96.3961,0.0,6.6,122.0,7.5,'11111222,11111222,11111222' 
TCOON,ioos:station:TCOON:057:1,2011-10-07T00:00:00Z,28.4460,-96.3961,0.0,6.6,124.0,7.5,'11111222,11111222,11111222' 
TCOON,ioos:station:TCOON:057:1,2011-10-07T01:00:00Z,28.4460,-96.3961,0.0,8.6,119.0,10.1,'11111222,11111222,11111222' 
TCOON,ioos:station:TCOON:057:1,2011-10-07T02:00:00Z,28.4460,-96.3961,0.0,8.2,121.0,9.6,'11111222,11111222,11111222' 
TCOON,ioos:station:TCOON:057:1,2011-10-07T03:00:00Z,28.4460,-96.3961,0.0,8.3,121.0,9.5,'11111222,11111222,11111222' 
TCOON,ioos:station:TCOON:057:1,2011-10-07T04:00:00Z,28.4460,-96.3961,0.0,8.4,126.0,10.1,'11111222,11111222,11111222' 
TCOON,ioos:station:TCOON:057:1,2011-10-07T05:00:00Z,28.4460,-96.3961,0.0,8.8,134.0,9.9,'11111222,11111222,11111222' 
TCOON,ioos:station:TCOON:057:1,2011-10-07T06:00:00Z,28.4460,-96.3961,0.0,8.0,138.0,9.0,'11111222,11111222,11111222' 
TCOON,ioos:station:TCOON:057:1,2011-10-07T07:00:00Z,28.4460,-96.3961,0.0,10.0,138.0,12.4,'11111222,11111222,11111222' 
TCOON,ioos:station:TCOON:057:1,2011-10-07T08:00:00Z,28.4460,-96.3961,0.0,10.3,138.0,11.7,'11111222,11111222,11111222' 
TCOON,ioos:station:TCOON:057:1,2011-10-07T09:00:00Z,28.4460,-96.3961,0.0,9.3,145.0,10.7,'11111222,11111222,11111222' 
TCOON,ioos:station:TCOON:057:1,2011-10-07T10:00:00Z,28.4460,-96.3961,0.0,7.3,154.0,9.0,'11111222,11111222,11111222' 
TCOON,ioos:station:TCOON:057:1,2011-10-07T11:00:00Z,28.4460,-96.3961,0.0,8.3,155.0,9.4,'11111222,11111222,11111222' 
TCOON,ioos:station:TCOON:057:1,2011-10-07T12:00:00Z,28.4460,-96.3961,0.0,7.9,145.0,9.3,'11111222,11111222,11111222' 
TCOON,ioos:station:TCOON:057:1,2011-10-07T13:00:00Z,28.4460,-96.3961,0.0,8.3,142.0,9.8,'11111222,11111222,11111222' 
TCOON,ioos:station:TCOON:057:1,2011-10-07T14:00:00Z,28.4460,-96.3961,0.0,7.8,138.0,9.2,'11111222,11111222,11111222' 
TCOON,ioos:station:TCOON:057:1,2011-10-07T15:00:00Z,28.4460,-96.3961,0.0,7.7,135.0,9.1,'11111222,11111222,11111222' 
TCOON,ioos:station:TCOON:057:1,2011-10-07T16:00:00Z,28.4460,-96.3961,0.0,7.7,136.0,9.8,'11111222,11111222,11111222' 
TCOON,ioos:station:TCOON:057:1,2011-10-07T17:00:00Z,28.4460,-96.3961,0.0,8.5,132.0,9.8,'11111222,11111222,11111222' 
TCOON,ioos:station:TCOON:057:1,2011-10-07T18:00:00Z,28.4460,-96.3961,0.0,7.9,134.0,9.4,'11111222,11111222,11111222' 
TCOON,ioos:station:TCOON:057:1,2011-10-07T19:00:00Z,28.4460,-96.3961,0.0,8.2,130.0,,'1111122,1111122,1111122' 
TCOON,ioos:station:TCOON:057:1,2011-10-07T20:00:00Z,28.4460,-96.3961,0.0,7.7,130.0,,'1111122,1111122,1111122' 
TCOON,ioos:station:TCOON:057:1,2011-10-07T21:00:00Z,28.4460,-96.3961,0.0,8.2,130.0,,'1111122,1111122,1111122' 
TCOON,ioos:station:TCOON:057:1,2011-10-07T22:00:00Z,28.4460,-96.3961,0.0,6.7,130.0,,'1111122,1111122,1111122' 
TCOON,ioos:station:TCOON:057:1,2011-10-07T23:00:00Z,28.4460,-96.3961,0.0,6.2,110.0,,'1111122,1111122,1111122' 
TCOON,ioos:station:TCOON:057:1,2011-10-08T00:00:00Z,28.4460,-96.3961,0.0,7.7,120.0,,'1111122,1111122,1111122' 
TCOON,ioos:station:TCOON:057:1,2011-10-08T01:00:00Z,28.4460,-96.3961,0.0,10.3,110.0,,'1111122,1111122,1111122' 
TCOON,ioos:station:TCOON:057:1,2011-10-08T02:00:00Z,28.4460,-96.3961,0.0,8.7,120.0,,'1111122,1111122,1111122' 
TCOON,ioos:station:TCOON:057:1,2011-10-08T03:00:00Z,28.4460,-96.3961,0.0,9.3,120.0,,'1111122,1111122,1111122' 
TCOON,ioos:station:TCOON:057:1,2011-10-08T04:00:00Z,28.4460,-96.3961,0.0,8.7,120.0,,'1111122,1111122,1111122' 
TCOON,ioos:station:TCOON:057:1,2011-10-08T05:00:00Z,28.4460,-96.3961,0.0,8.7,120.0,,'1111122,1111122,1111122' 
TCOON,ioos:station:TCOON:057:1,2011-10-08T06:00:00Z,28.4460,-96.3961,0.0,9.8,130.0,,'1111122,1111122,1111122' 
TCOON,ioos:station:TCOON:057:1,2011-10-08T07:00:00Z,28.4460,-96.3961,0.0,10.3,130.0,,'1111122,1111122,1111122' 
TCOON,ioos:station:TCOON:057:1,2011-10-08T08:00:00Z,28.4460,-96.3961,0.0,10.3,120.0,,'1111122,1111122,1111122' 
TCOON,ioos:station:TCOON:057:1,2011-10-08T09:00:00Z,28.4460,-96.3961,0.0,8.7,130.0,,'1111122,1111122,1111122' 
TCOON,ioos:station:TCOON:057:1,2011-10-08T10:00:00Z,28.4460,-96.3961,0.0,8.2,130.0,,'1111122,1111122,1111122' 
TCOON,ioos:station:TCOON:057:1,2011-10-08T11:00:00Z,28.4460,-96.3961,0.0,8.2,130.0,,'1111122,1111122,1111122' 
TCOON,ioos:station:TCOON:057:1,2011-10-08T12:00:00Z,28.4460,-96.3961,0.0,8.2,130.0,,'1111122,1111122,1111122' 
TCOON,ioos:station:TCOON:057:1,2011-10-08T13:00:00Z,28.4460,-96.3961,0.0,8.7,140.0,,'1111122,1111122,1111122' 
TCOON,ioos:station:TCOON:057:1,2011-10-08T14:00:00Z,28.4460,-96.3961,0.0,7.7,140.0,,'1111122,1111122,1111122' 
TCOON,ioos:station:TCOON:057:1,2011-10-08T15:00:00Z,28.4460,-96.3961,0.0,7.7,140.0,,'1111122,1111122,1111122' 
TCOON,ioos:station:TCOON:057:1,2011-10-08T16:00:00Z,28.4460,-96.3961,0.0,7.2,140.0,,'1111122,1111122,1111122' 
TCOON,ioos:station:TCOON:057:1,2011-10-08T17:00:00Z,28.4460,-96.3961,0.0,7.7,150.0,,'1111122,1111122,1111122' 
TCOON,ioos:station:TCOON:057:1,2011-10-08T18:00:00Z,28.4460,-96.3961,0.0,8.7,140.0,,'1111122,1111122,1111122' 
TCOON,ioos:station:TCOON:057:1,2011-10-08T19:00:00Z,28.4460,-96.3961,0.0,8.2,130.0,,'1111122,1111122,1111122' 
TCOON,ioos:station:TCOON:057:1,2011-10-08T20:00:00Z,28.4460,-96.3961,0.0,9.3,130.0,,'1111122,1111122,1111122' 
TCOON,ioos:station:TCOON:057:1,2011-10-08T21:00:00Z,28.4460,-96.3961,0.0,7.2,120.0,,'1111122,1111122,1111122' 
TCOON,ioos:station:TCOON:057:1,2011-10-08T22:00:00Z,28.4460,-96.3961,0.0,8.2,120.0,,'1111122,1111122,1111122' 
TCOON,ioos:station:TCOON:057:1,2011-10-08T23:00:00Z,28.4460,-96.3961,0.0,8.7,110.0,,'1111122,1111122,1111122' 
TCOON,ioos:station:TCOON:057:1,2011-10-09T00:00:00Z,28.4460,-96.3961,0.0,7.7,110.0,,'1111122,1111122,1111122' 
TCOON,ioos:station:TCOON:057:1,2011-10-09T01:00:00Z,28.4460,-96.3961,0.0,7.7,100.0,,'1111122,1111122,1111122' 
TCOON,ioos:station:TCOON:057:1,2011-10-09T02:00:00Z,28.4460,-96.3961,0.0,11.3,120.0,,'1111122,1111122,1111122' 
TCOON,ioos:station:TCOON:057:1,2011-10-09T03:00:00Z,28.4460,-96.3961,0.0,9.8,110.0,,'1111122,1111122,1111122' 
TCOON,ioos:station:TCOON:057:1,2011-10-09T04:00:00Z,28.4460,-96.3961,0.0,9.8,120.0,,'1111122,1111122,1111122' 
TCOON,ioos:station:TCOON:057:1,2011-10-09T05:00:00Z,28.4460,-96.3961,0.0,11.3,120.0,,'1111122,1111122,1111122' 
TCOON,ioos:station:TCOON:057:1,2011-10-09T06:00:00Z,28.4460,-96.3961,0.0,9.3,110.0,,'1111122,1111122,1111122' 
TCOON,ioos:station:TCOON:057:1,2011-10-09T07:00:00Z,28.4460,-96.3961,0.0,8.7,120.0,,'1111122,1111122,1111122' 
TCOON,ioos:station:TCOON:057:1,2011-10-09T08:00:00Z,28.4460,-96.3961,0.0,8.2,130.0,,'1111122,1111122,1111122' 
TCOON,ioos:station:TCOON:057:1,2011-10-09T09:00:00Z,28.4460,-96.3961,0.0,8.7,80.0,,'1111122,1111122,1111122' 
TCOON,ioos:station:TCOON:057:1,2011-10-09T10:00:00Z,28.4460,-96.3961,0.0,7.7,130.0,,'1111122,1111122,1111122' 
TCOON,ioos:station:TCOON:057:1,2011-10-09T11:00:00Z,28.4460,-96.3961,0.0,8.7,130.0,,'1111122,1111122,1111122' 
TCOON,ioos:station:TCOON:057:1,2011-10-09T12:00:00Z,28.4460,-96.3961,0.0,6.2,100.0,,'1111122,1111122,1111122' 
TCOON,ioos:station:TCOON:057:1,2011-10-09T13:00:00Z,28.4460,-96.3961,0.0,6.2,140.0,,'1111122,1111122,1111122' 
TCOON,ioos:station:TCOON:057:1,2011-10-09T14:00:00Z,28.4460,-96.3961,0.0,4.6,140.0,,'1111122,1111122,1111122' 